Regional Weather Roundup
Issued by NWS Huntsville, AL

Home | Current Version | Previous Version | Text Only | Print | Product List | Glossary On
Versions: 1 2 3 4 5 6 7 8 9 10 11 12 13 14 15 16 17 18 19 20 21 22 23 24 25 26 27
000
ASUS44 KHUN 260610
RWRHUN

WEATHER ROUNDUP FOR THE TENNESSEE VALLEY
NATIONAL WEATHER SERVICE HUNTSVILLE AL
100 AM CDT FRI MAY 26 2017

ALZ001>004-260700-
NORTHWEST ALABAMA

CITY           SKY/WX    TMP DP  RH WIND       PRES   REMARKS
SHOALS AIRPORT CLEAR     55  53  93 CALM      29.91S
6HR MIN TEMP:  55; 6HR MAX TEMP:  72;

SHOALS TVA RES   N/A     55 N/A N/A MISG        N/A
$$

ALZ005>007-016-260700-
NORTH CENTRAL ALABAMA

CITY           SKY/WX    TMP DP  RH WIND       PRES   REMARKS
DECATUR AP     CLEAR     57  55  93 SE5       29.93R
6HR MIN TEMP:  56; 6HR MAX TEMP:  71;

HUNTSVILLE AP  CLEAR     58  56  93 E3        29.92R
6HR MIN TEMP:  57; 6HR MAX TEMP:  71;

MERIDIANVILLE  CLEAR     54  52  94 CALM      29.93R
REDSTONE ARSN  CLEAR     56  53  91 CALM      29.92R
VINEMONT AP    FAIR      52  51  97 CALM      29.95S
$$

ALZ008>010-260700-
NORTHEAST ALABAMA

CITY           SKY/WX    TMP DP  RH WIND       PRES   REMARKS
ALBERTVILLE    PTCLDY    54  54 100 S3        29.94S
FORT PAYNE     CLEAR     50  46  87 CALM      29.95R
SCOTTSBORO AP  CLEAR     54  54 100 CALM      29.95R
SCOTTSBORO HCN   N/A     52 N/A N/A MISG        N/A
VALLEY HEAD      N/A     52 N/A N/A MISG        N/A
$$

TNZ076-096-097-260700-
SOUTHEASTERN MIDDLE TENNESSEE

CITY           SKY/WX    TMP DP  RH WIND       PRES   REMARKS
TULLAHOMA      CLEAR     52  48  87 CALM      29.93S
WINCHESTER     CLEAR     54  52  94 CALM        N/A
$$

...SURROUNDING SITES...

CITY           SKY/WX    TMP DP  RH WIND       PRES   REMARKS
ATLANTA        CLEAR     60  52  74 W5        29.96R
ANNISTON       CLEAR     55  53  93 CALM      29.95S
BIRMINGHAM     CLEAR     57  55  93 CALM      29.96S
CHATTANOOGA    CLEAR     59  52  77 CALM      29.94R
CORINTH        FAIR      57  55  94 SE5       29.88S
DALTON         CLEAR     54  54 100 CALM      29.94S
GADSDEN        CLEAR     53  53 100 CALM      29.96R
GOLDEN TRNGL   CLEAR     63  52  67 S6        29.87R
HALEYVILLE     FAIR      56  53  90 SW3       29.94S
JACKSON TN     CLEAR     58  55  90 S3        29.86S
MEMPHIS        CLEAR     67  57  70 S6        29.84R
NASHVILLE      CLEAR     56  52  86 S6        29.89S
OXFORD MS      FAIR      63  55  77 SE7       29.88F
ROME           CLEAR     55  55 100 CALM      29.94R
SAVANNAH       CLEAR     57  54  88 CALM      29.87S
SELMER         CLEAR     57  54  88 CALM      29.87S
TUPELO         CLEAR     61  56  83 CALM      29.88S
TUSCALOOSA     CLEAR     59  58  96 CALM      29.93S
$$

...GULF COAST WEATHER...

CITY           SKY/WX    TMP DP  RH WIND       PRES   REMARKS
GULFPORT       CLEAR     73  62  68 S5        29.93S
PASCAGOULA     CLEAR     63  60  90 CALM      29.94S
MOBILE         CLEAR     67  59  75 S5        29.95F
GULF SHORES    CLEAR     60  60 100 CALM      29.96S
PENSACOLA      CLEAR     63  59  87 CALM      29.95S
DESTIN         CLEAR     73  67  81 CALM      29.96S
PANAMA CITY    CLEAR     65  61  87 CALM      29.97S
APPALACHICOLA  CLEAR     60  57  89 CALM      29.97R
$$





USA.gov is the U.S. government's official web portal to all federal, state and local government web resources and services.